This demonstration page uses our WeatherBlox Daily Observations layout. Learn more.

Left ArrowRight Arrow

41.12389, -100.76542

Hourly Observations for January 1, 2019

Temp ( °F °C ) Dew Point ( °F °C ) Humidity (%) Winds ( mph kmh ) Pressure ( in mb ) Visibility ( mi km ) Precip ( " mm )
12:53 am 00:53 Cloudy 8 -13.3 -5 -20.6 55 55 NNE 15 24 30.53 1034 10 16 0.00 0.00
1:53 am 01:53 Mostly Cloudy 7 -13.9 -6 -21.1 55 55 N 16 26 30.53 1034 10 16 0.00 0.00
2:53 am 02:53 Cloudy 7 -13.9 -6 -21.1 55 55 N 15 24 30.55 1034 10 16 0.00 0.00
3:53 am 03:53 Mostly Cloudy 6 -14.4 -6 -21.1 57 57 N 12 19 30.55 1035 10 16 0.00 0.00
4:53 am 04:53 Cloudy 7 -13.9 -8 -22.2 50 50 N 14 22 30.54 1034 10 16 0.00 0.00
5:53 am 05:53 Cloudy 7 -13.9 -8 -22.2 50 50 NNE 13 20 30.53 1034 10 16 0.00 0.00
6:53 am 06:53 Cloudy 7 -13.9 -8 -22.2 50 50 N 9 15 30.55 1034 10 16 0.00 0.00
7:53 am 07:53 Cloudy 8 -13.3 -7 -21.7 50 50 N 7 11 30.55 1035 10 16 0.00 0.00
8:53 am 08:53 Cloudy 8 -13.3 -6 -21.1 52 52 N 9 15 30.56 1035 10 16 0.00 0.00
9:53 am 09:53 Cloudy 10 -12.2 -4 -20 53 53 N 7 11 30.55 1035 10 16 0.00 0.00
10:53 am 10:53 Mostly Cloudy 12 -11.1 -4 -20 48 48 NNE 6 9 30.55 1035 10 16 0.00 0.00
11:53 am 11:53 Cloudy 13 -10.6 -4 -20 46 46 NW 3 6 30.51 1033 10 16 0.00 0.00
12:53 pm 12:53 Cloudy 15 -9.4 -2 -18.9 46 46 NW 6 9 30.46 1032 10 16 0.00 0.00
1:53 pm 13:53 Cloudy 17 -8.3 -2 -18.9 43 43 Calm 30.40 1030 10 16 0.00 0.00
2:53 pm 14:53 Cloudy 16 -8.9 1 -17.2 51 51 SSW 8 13 30.40 1029 10 16 0.00 0.00
3:53 pm 15:53 Sunny 17 -8.3 3 -16.1 54 54 S 6 9 30.37 1029 10 16 0.00 0.00
4:53 pm 16:53 Sunny 15 -9.4 3 -16.1 59 59 SSW 7 11 30.36 1028 10 16 0.00 0.00
5:53 pm 17:53 Clear 13 -10.6 3 -16.1 64 64 S 3 6 30.34 1027 10 16 0.00 0.00
6:53 pm 18:53 Clear 11 -11.7 2 -16.7 67 67 S 3 6 30.35 1028 10 16 0.00 0.00
7:53 pm 19:53 Clear 10 -12.2 1 -17.2 67 67 SSW 7 11 30.35 1028 10 16 0.00 0.00
8:53 pm 20:53 Clear 11 -11.7 1 -17.2 64 64 SSW 12 19 30.32 1027 10 16 0.00 0.00
9:53 pm 21:53 Clear 11 -11.7 1 -17.2 64 64 SW 10 17 30.30 1026 10 16 0.00 0.00
10:53 pm 22:53 Clear 10 -12.2 1 -17.2 67 67 SW 10 17 30.27 1025 10 16 0.00 0.00
11:53 pm 23:53 Clear 10 -12.2 2 -16.7 69 69 SW 9 15 30.24 1024 10 16 0.00 0.00

Powered by AerisWeather